www.pogodaiklimat.ru
ПОГОДА в Бузаубае

Архив погоды в Бузаубае (Навоийская область, Узбекистан)

Время
и дата
08:40 16.04
08:50 16.04
09:00 16.04
09:10 16.04
16:20 16.04
18:00 16.04
18:10 16.04
18:20 16.04
18:30 16.04
18:40 16.04
19:00 16.04
19:10 16.04
19:30 16.04
19:40 16.04
19:50 16.04
20:30 16.04
20:40 16.04
20:50 16.04
21:00 16.04
22:30 16.04
22:50 16.04
23:00 16.04
23:10 16.04
23:30 16.04
23:40 16.04
00:00 17.04
00:10 17.04
00:20 17.04
00:30 17.04
00:40 17.04
00:50 17.04
01:00 17.04
01:10 17.04
01:20 17.04
01:40 17.04
01:50 17.04
02:10 17.04
02:20 17.04
02:30 17.04
02:40 17.04
02:50 17.04
03:10 17.04
03:20 17.04
03:40 17.04
03:50 17.04
04:00 17.04
04:10 17.04
04:20 17.04
04:30 17.04
04:50 17.04
05:00 17.04
05:20 17.04
05:30 17.04
05:40 17.04
06:00 17.04
06:10 17.04
06:20 17.04
06:30 17.04
06:50 17.04
07:00 17.04
07:10 17.04
07:30 17.04
08:30 17.04
08:50 17.04
10:50 17.04
16:20 17.04
16:40 17.04
16:50 17.04
17:10 17.04
17:30 17.04
17:40 17.04
18:00 17.04
18:10 17.04
18:30 17.04
18:40 17.04
18:50 17.04
19:00 17.04
19:10 17.04
19:30 17.04
19:50 17.04
20:00 17.04
20:20 17.04
20:30 17.04
20:40 17.04
20:50 17.04
21:00 17.04
21:20 17.04
21:30 17.04
21:40 17.04
22:00 17.04
22:10 17.04
22:20 17.04
22:30 17.04
22:50 17.04
23:00 17.04
23:10 17.04
23:20 17.04
23:40 17.04
23:50 17.04
00:00 18.04
00:10 18.04
00:20 18.04
00:30 18.04
00:40 18.04
00:50 18.04
01:10 18.04
01:20 18.04
01:30 18.04
02:20 18.04
02:30 18.04
12:10 20.04
12:20 20.04
12:30 20.04
12:40 20.04
12:50 20.04
13:00 20.04
13:10 20.04
13:20 20.04
13:30 20.04
13:40 20.04
13:50 20.04
14:00 20.04
14:10 20.04
14:20 20.04
14:30 20.04
14:40 20.04
14:50 20.04
15:00 20.04
15:10 20.04
15:20 20.04
15:30 20.04
15:40 20.04
15:50 20.04
16:00 20.04
16:10 20.04
16:20 20.04
16:30 20.04
16:40 20.04
16:50 20.04
17:00 20.04
17:10 20.04
17:20 20.04
17:30 20.04
17:40 20.04
Ветер
(напр.,м/с)
Видимость Явления Солнечная радиация
(Вт/м2)
Т
(С)
Тd
(С)
f
(%)
Тe
(С)
Тes
(С)
Комфортность P
(гПа)
Po
(гПа)
Тmin
(С)
Tmax
(С)
R
(мм)
ЮЗ 3.9
{5.2}
+16.2 +9.4 64 +16 +16 1020.4 1008.8 +16.2 +15.7
ЮЗ 3.8
{4.9}
+16.7 +9.2 61 +16 +16 1020.5 1008.9 +16.7 +16.1
Ю 3.8
{5.0}
+17.0 +9.1 60 +17 +17 1020.5 1008.9 +17.0 +16.6
Ю 3.1
{4.3}
+17.4 +9.0 58 +17 +17 1020.4 1008.8 +17.4 +17.0
З 5.3
{8.8}
+27.5 +0.1 17 +25 +25 комфорт 1019.9 1008.3 +27.8 +27.5
З 5.2
{6.8}
+26.6 -4.6 13 +24 +24 комфорт 1019.8 1008.2 +26.9 +26.6
З 4.1
{5.2}
+26.6 -4.8 12 +24 +24 комфорт 1019.8 1008.2 +26.7 +26.6
ЮЗ 4.0
{5.3}
+26.7 -4.9 12 +24 +24 комфорт 1019.8 1008.2 +26.8 +26.6
З 4.3
{5.3}
+26.7 -4.8 12 +24 +24 комфорт 1019.8 1008.2 +26.7 +26.7
З 3.8
{4.8}
+26.7 -4.7 12 +24 +24 комфорт 1019.9 1008.3 +26.7 +26.7
З 2.8
{3.9}
+26.2 -4.5 13 +24 +24 комфорт 1019.8 1008.2 +26.5 +26.2
З 2.5
{3.1}
+25.9 -4.5 13 +23 +23 комфорт 1019.9 1008.3 +26.2 +25.9
З 2.2
{2.7}
+24.7 -4.0 15 +23 +23 комфорт 1019.9 1008.3 +25.3 +24.7
З 1.9
{2.3}
+24.0 -3.9 15 +22 +22 комфорт 1019.9 1008.3 +24.7 +24.0
З 1.5
{2.3}
+23.3 -3.8 16 +21 +21 комфорт 1020.0 1008.4 +24.0 +23.3
З 4.1
{5.2}
+22.4 -1.8 20 +21 +21 комфорт 1020.3 1008.7 +22.5 +22.3
СЗ 3.4
{4.2}
+21.9 -1.6 21 +21 +21 комфорт 1020.4 1008.8 +22.4 +21.9
СЗ 3.8
{4.5}
+21.4 -1.4 22 +21 +21 комфорт 1020.5 1008.9 +21.9 +21.4
СЗ 3.8
{4.3}
+21.2 -1.2 22 +21 +21 комфорт 1020.5 1008.9 +21.4 +21.2
СЗ 3.4
{4.1}
+19.7 -0.4 26 +20 +20 1020.9 1009.2 +20.1 +19.6
СЗ 3.2
{4.0}
+19.8 -0.4 26 +20 +20 1020.8 1009.1 +19.9 +19.8
СЗ 2.4
{3.5}
+19.6 -0.3 26 +20 +20 1020.8 1009.1 +19.8 +19.6
СЗ 3.6
{4.9}
+19.9 -0.3 26 +20 +20 1020.9 1009.2 +19.9 +19.3
СЗ 4.6
{5.9}
+20.1 -0.1 26 +20 +20 1020.8 1009.1 +20.1 +19.8
СЗ 5.1
{6.4}
+20.4 +0.1 26 +20 +20 1020.7 1009.0 +20.4 +20.1
СЗ 4.6
{5.9}
+20.2 +0.3 26 +20 +20 1020.7 1009.0 +20.5 +20.2
СЗ 4.4
{5.9}
+19.9 +0.4 27 +20 +20 1020.8 1009.1 +20.2 +19.9
СЗ 4.5
{5.8}
+20.0 +0.4 27 +20 +20 1020.7 1009.0 +20.0 +19.8
СЗ 4.6
{5.9}
+20.0 +0.5 27 +20 +20 1020.7 1009.0 +20.1 +20.0
С 3.4
{5.4}
+19.7 +0.5 28 +20 +20 1020.7 1009.0 +20.0 +19.7
ЮВ 4.3
{9.5}
+18.1 -0.2 29 +18 +18 1020.8 1009.1 +19.7 +18.0
ЮВ 4.6
{7.4}
+16.8 -0.6 31 +16 +16 1021.0 1009.3 +18.1 +16.8
В 3.6
{4.8}
+15.8 -0.4 33 +15 +15 1021.0 1009.3 +16.8 +15.8
В 3.2
{4.0}
+15.8 -0.3 33 +15 +15 1021.0 1009.3 +15.9 +15.7
СВ 1.1
{1.5}
+15.7 -0.2 34 +16 +16 1020.8 1009.1 +15.7 +15.3
СВ 0.7
{1.4}
+15.6 -0.2 34 +17 +17 1020.7 1009.0 +15.7 +15.5
С 0.5
{0.9}
+15.4 0.0 35 +17 +17 1020.7 1009.0 +15.8 +15.4
С 0.5
{1.0}
+15.6 -0.2 34 +17 +17 1020.7 1009.0 +15.7 +15.4
СЗ 0.6
{1.1}
+15.1 -0.2 35 +16 +16 1020.5 1008.9 +15.6 +15.1
С 1.0
{1.5}
+15.0 +0.2 36 +16 +16 1020.5 1008.9 +15.1 +14.8
С 0.7
{1.2}
+14.8 +0.1 37 +16 +16 1020.5 1008.9 +15.3 +14.8
С 0.8
{1.1}
+14.1 +0.4 39 +15 +15 1020.5 1008.9 +14.4 +14.1
С 0.4
{0.7}
+13.8 +0.3 40 +15 +15 1020.5 1008.9 +14.1 +13.8
С 0.7
{0.9}
+13.5 +0.6 41 +14 +14 1020.7 1009.0 +13.7 +13.5
СЗ 1.0
{1.3}
+13.3 +0.7 42 +14 +14 1020.7 1009.0 +13.5 +13.3
З 0.8
{1.3}
+13.3 +1.5 45 +14 +14 1020.7 1009.0 +13.4 +13.3
З 0.8
{1.2}
+13.4 +1.7 45 +14 +14 1020.8 1009.1 +13.4 +13.3
З 0.6
{1.0}
+13.4 +1.7 45 +15 +15 1020.9 1009.2 +13.5 +13.4
С 0.5
{1.1}
+12.8 +0.8 44 +14 +14 1020.9 1009.2 +13.4 +12.8
З 1.1
{1.6}
+13.2 +1.8 46 +14 +14 1021.0 1009.3 +13.2 +12.9
СЗ 0.6
{1.2}
+13.0 +2.3 48 +14 +14 1021.0 1009.3 +13.2 +13.0
З 0.9
{1.2}
+12.4 +1.9 48 +13 +13 1021.0 1009.3 +12.6 +12.5
СЗ 0.3
{0.7}
+12.2 +2.3 51 +14 +14 1021.0 1009.3 +12.5 +12.2
СЗ 0.3
{0.7}
+12.0 +2.1 51 +14 +14 1021.1 1009.4 +12.2 +11.9
С 1.0
{1.9}
+12.0 +2.2 51 +12 +12 1021.1 1009.4 +12.0 +11.9
СЗ 0.8
{1.8}
+11.7 +2.8 54 +12 +12 1021.2 1009.5 +12.0 +11.6
СВ 0.5
{1.2}
+11.6 +3.3 57 +13 +13 1021.3 1009.6 +11.8 +11.6
В 0.8
{1.2}
+11.3 +2.8 56 +12 +12 1021.4 1009.7 +11.6 +11.3
Ю 0.4
{1.2}
+11.9 +2.8 54 +13 +13 1021.5 1009.8 +11.9 +11.6
В 0.2
{0.9}
+12.4 +2.7 52 +15 +15 1021.5 1009.8 +12.4 +11.9
ЮЗ 0.3
{0.6}
+12.8 +3.7 54 +15 +15 1021.6 1009.9 +12.8 +12.4
З 0.3
{0.8}
+14.3 +4.6 52 +16 +16 1021.6 1009.9 +14.3 +13.5
ЮЗ 1.2
{2.0}
+18.1 +8.2 53 +19 +19 1021.6 1009.9 +18.0 +17.2
ЮЗ 1.1
{1.8}
+18.8 +8.2 50 +20 +20 1021.5 1009.8 +18.8 +18.5
В 1.8
{3.7}
+25.1 +6.2 30 +25 +25 комфорт 1021.2 1009.6 +25.7 +25.1
СВ 4.6
{8.8}
+28.8 -1.3 14 +26 +26 жарко 1017.6 1006.0 +28.9 +28.4
СВ 5.4
{9.2}
+28.7 -1.5 14 +26 +26 жарко 1017.5 1005.9 +28.9 +28.5
СВ 4.7
{9.1}
+28.7 -1.5 14 +26 +26 жарко 1017.4 1005.8 +28.8 +28.6
СВ 6.2
{9.8}
+28.7 -1.1 14 +26 +26 жарко 1017.3 1005.7 +28.7 +28.4
СВ 5.8
{8.6}
+28.7 -0.5 15 +26 +26 жарко 1017.2 1005.6 +28.8 +28.5
СВ 6.6
{10.5}
+28.4 -0.3 15 +26 +26 жарко 1017.1 1005.5 +28.9 +28.4
СВ 6.3
{9.1}
+28.2 -0.5 15 +26 +26 жарко 1016.9 1005.3 +28.4 +28.2
В 5.5
{7.7}
+28.2 -0.3 16 +26 +26 жарко 1016.8 1005.2 +28.3 +28.2
В 4.5
{6.7}
+28.0 -0.1 16 +26 +26 жарко 1016.7 1005.1 +28.1 +27.9
СВ 4.1
{6.4}
+27.9 -0.3 16 +26 +26 жарко 1016.7 1005.1 +28.0 +27.9
СВ 4.5
{5.9}
+27.9 -0.5 16 +26 +26 жарко 1016.7 1005.1 +27.9 +27.9
СВ 3.7
{5.4}
+27.8 -1.2 15 +25 +25 комфорт 1016.6 1005.0 +27.9 +27.8
СВ 5.5
{7.4}
+27.6 -2.9 13 +25 +25 комфорт 1016.5 1004.9 +27.8 +27.6
СВ 4.3
{6.4}
+27.0 -3.1 14 +24 +24 комфорт 1016.6 1005.0 +27.4 +27.0
СВ 4.2
{5.2}
+26.1 -2.8 15 +24 +24 комфорт 1016.8 1005.2 +26.5 +26.1
СВ 3.8
{5.1}
+25.7 -2.7 15 +24 +24 комфорт 1016.9 1005.3 +26.1 +25.7
СВ 3.7
{4.6}
+25.0 -2.6 16 +23 +23 комфорт 1017.1 1005.5 +25.3 +25.0
СВ 3.9
{4.6}
+24.6 -2.5 16 +23 +23 комфорт 1017.1 1005.5 +25.0 +24.6
СВ 3.8
{4.6}
+24.3 -2.5 17 +23 +23 комфорт 1017.2 1005.6 +24.6 +24.3
СВ 3.9
{4.6}
+24.3 -2.5 17 +23 +23 комфорт 1017.2 1005.6 +24.3 +24.3
СВ 3.7
{4.5}
+23.9 -2.3 17 +22 +22 комфорт 1017.3 1005.7 +24.3 +23.9
С 3.7
{4.9}
+22.5 -1.9 20 +21 +21 комфорт 1017.5 1005.9 +23.5 +22.5
С 4.3
{5.3}
+22.6 -2.0 19 +21 +21 комфорт 1017.5 1005.9 +22.6 +22.4
С 4.1
{5.3}
+22.5 -1.7 20 +21 +21 комфорт 1017.6 1006.0 +22.7 +22.5
С 4.8
{6.3}
+22.2 -1.5 21 +21 +21 комфорт 1017.6 1006.0 +22.3 +22.1
С 4.8
{5.9}
+21.8 -1.3 21 +21 +21 комфорт 1017.6 1006.0 +22.2 +21.8
С 4.9
{6.1}
+21.7 -1.2 22 +21 +21 комфорт 1017.6 1006.0 +21.8 +21.7
С 4.4
{5.7}
+21.7 -1.2 22 +21 +21 комфорт 1017.6 1006.0 +21.7 +21.7
СВ 4.2
{5.9}
+21.5 -1.1 22 +21 +21 комфорт 1017.6 1006.0 +21.7 +21.6
СВ 3.5
{4.3}
+21.0 -1.0 23 +21 +21 комфорт 1017.7 1006.1 +21.5 +21.0
СВ 3.5
{4.5}
+21.0 -1.1 23 +21 +21 комфорт 1017.6 1006.0 +21.1 +21.0
СВ 3.2
{4.0}
+20.4 -1.0 24 +21 +21 комфорт 1017.6 1006.0 +21.0 +20.4
СВ 3.6
{4.9}
+20.8 -1.0 23 +21 +21 комфорт 1017.5 1005.9 +20.8 +20.6
СВ 3.8
{5.6}
+20.9 -0.9 23 +21 +21 комфорт 1017.4 1005.8 +20.9 +20.8
СВ 4.1
{6.5}
+20.9 -0.7 23 +21 +21 комфорт 1017.4 1005.8 +20.9 +20.8
СВ 4.7
{8.9}
+21.4 -0.6 23 +21 +21 комфорт 1017.3 1005.7 +21.4 +20.9
СВ 4.6
{6.3}
+21.3 -0.4 23 +21 +21 комфорт 1017.3 1005.7 +21.4 +21.3
СВ 3.7
{5.4}
+20.9 -0.3 24 +21 +21 комфорт 1017.3 1005.7 +21.3 +20.9
СВ 3.8
{5.3}
+20.7 -0.3 25 +21 +21 комфорт 1017.2 1005.6 +20.9 +20.7
СВ 3.6
{4.8}
+20.5 -0.1 25 +21 +21 комфорт 1017.2 1005.6 +20.7 +20.5
СВ 3.7
{5.2}
+20.2 0.0 26 +20 +20 1017.1 1005.5 +20.3 +20.1
СВ 3.7
{5.2}
+19.5 0.0 27 +20 +20 1017.0 1005.4 +20.2 +19.5
С 3.9
{5.6}
+19.1 -0.4 27 +19 +19 1017.0 1005.4 +19.5 +19.1
С 3.8
{4.9}
+18.3 -0.2 29 +18 +18 1016.6 1005.0 +18.3 +18.2
С 4.1
{5.6}
+18.1 -0.2 29 +18 +18 1016.5 1004.9 +18.3 +18.1
С 2.4
{4.8}
+29.3 +2.1 17 +27 +27 жарко 1007.9 996.4 +29.3 +28.9
С 2.7
{5.9}
+29.5 +2.4 18 +27 +27 жарко 1007.8 996.3 +30.0 +29.2
С 2.1
{4.5}
+29.6 +2.2 17 +27 +27 жарко 1007.7 996.2 +29.9 +29.5
С 2.5
{4.7}
+30.0 +1.8 16 +27 +27 жарко 1007.6 996.1 +30.0 +29.4
СЗ 1.3
{4.4}
+30.7 +1.6 16 +28 +28 жарко 1007.5 996.0 +30.8 +29.8
СЗ 3.2
{5.3}
+30.3 +1.7 16 +28 +28 жарко 1007.4 995.9 +30.7 +29.8
З 2.4
{4.7}
+30.3 +1.7 16 +28 +28 жарко 1007.3 995.8 +30.6 +30.1
С 3.4
{7.0}
+30.1 +1.4 16 +28 +28 жарко 1007.3 995.8 +30.7 +30.2
С 3.2
{6.4}
+30.3 +1.2 16 +28 +28 жарко 1007.2 995.7 +30.9 +29.8
С 2.7
{5.3}
+30.8 +1.2 15 +28 +28 жарко 1007.2 995.7 +30.8 +30.1
ЮВ 1.8
{6.1}
+31.4 +0.9 14 +28 +28 жарко 1007.1 995.6 +31.4 +30.6
С 3.1
{6.2}
+30.4 +1.4 16 +28 +28 жарко 1007.0 995.5 +31.4 +30.4
С 3.2
{6.5}
+31.0 +0.9 15 +28 +28 жарко 1006.9 995.4 +31.0 +30.4
СВ 3.7
{7.1}
+30.6 +1.1 15 +28 +28 жарко 1006.8 995.3 +31.3 +30.6
СВ 2.1
{5.3}
+31.4 +0.8 14 +28 +28 жарко 1006.7 995.2 +31.5 +30.6
СВ 4.4
{7.9}
+31.0 +0.8 14 +28 +28 жарко 1006.6 995.1 +31.5 +30.9
ЮВ 1.6
{4.1}
+31.3 +0.6 14 +28 +28 жарко 1006.5 995.0 +31.3 +30.9
Ю 2.4
{4.7}
+31.3 +0.8 14 +28 +28 жарко 1006.4 994.9 +31.8 +31.3
Ю 2.6
{5.0}
+31.2 +0.6 14 +28 +28 жарко 1006.3 994.8 +31.6 +31.0
СЗ 2.0
{5.0}
+31.4 +1.1 14 +28 +28 жарко 1006.3 994.8 +32.0 +31.2
СЗ 2.8
{4.8}
+31.3 +0.9 14 +28 +28 жарко 1006.2 994.7 +31.8 +31.2
СЗ 3.4
{6.4}
+31.6 +0.7 14 +29 +29 жарко 1006.2 994.7 +31.9 +31.3
ЮЗ 3.7
{6.0}
+31.3 +0.8 14 +28 +28 жарко 1006.1 994.6 +31.6 +31.1
ЮЗ 2.8
{5.0}
+31.4 +0.7 14 +28 +28 жарко 1006.1 994.6 +31.6 +31.2
ЮЗ 3.0
{5.4}
+31.4 +0.8 14 +28 +28 жарко 1006.0 994.5 +31.6 +31.3
ЮЗ 2.9
{4.6}
+31.4 +0.9 14 +28 +28 жарко 1006.0 994.5 +31.4 +31.2
Ю 2.6
{4.7}
+31.3 +1.0 14 +28 +28 жарко 1006.0 994.5 +31.6 +31.2
ЮВ 2.2
{4.7}
+31.6 +1.0 14 +29 +29 жарко 1006.0 994.5 +31.6 +31.1
ЮЗ 2.9
{4.4}
+31.4 +0.9 14 +28 +28 жарко 1005.9 994.4 +31.8 +31.2
З 1.3
{3.9}
+31.9 +0.9 14 +29 +29 жарко 1005.9 994.4 +32.0 +31.4
З 2.4
{5.8}
+31.9 +0.8 14 +29 +29 жарко 1005.9 994.4 +31.9 +31.7
СВ 0.9
{2.2}
+32.7 +0.5 13 +30 +30 жарко 1005.9 994.4 +32.6 +31.9
ЮВ 0.9
{1.8}
+32.8 +0.6 13 +30 +30 жарко 1005.8 994.3 +32.8 +32.6
Ю 1.6
{3.2}
+32.0 +0.7 14 +29 +29 жарко 1005.8 994.3 +32.8 +32.0
Местоположение метеостанции Бузаубай (Навоийская область, Узбекистан): широта 41.74 долгота 62.37 высота над уровнем моря 0 м.
В архиве по умолчанию представлена погода в Бузаубае за последние 1-2 суток. Обновление информации о фактической погоде в базе происходит ежечасно! Архивные данные за месяц целиком и за предыдущие месяцы Вы можете получить, выбрав интересующий диапазон дат из раскрывающегося списка и нажав кнопку "Ввод!".
*Определитесь, кто Вы:
Внимание! Время в таблицах - местное (без учета летнего времени). Для получения всемирного времени необходимо вычесть поправку, которая равна 5 ч.
Смотрите также архив погоды на ближайших метеорологических станциях:
Партнеры нашего сайта:      
Пояснения к столбцам:
  • Ветер - указаны скорость ветра в м/с - средняя за 10 мин, порывы в срок и между сроками (в фигурных скобках) и направление, откуда дует ветер: С - северный,
  • СВ - северо-восточный, В - восточный, ЮВ - юго-восточный, Ю - южный, ЮЗ - юго-западный, З - западный, СЗ - северо-западный.
  • Видимость - горизонтальная дальность видимости в метрах или километрах. При видимости от 1 до 10 км при отсутствии осадков обычно наблюдается дымка, при ухудшении видимости до 1 км и менее - туман. В сухую погоду видимость может ухудшаться дымом, пылью или мглою.
  • Явления - указаны атмосферные явления, наблюдавшиеся в срок или в последний час перед сроком.
  • Солнечная радиация - мощность потока солнечного излучения на поверхность земли и предметов в Вт/м2.
  • T - Температура воздуха - температура, измеренная на высоте 2 м над землей.
  • Td - Температура точки росы - температура, при понижении до которой содержащийся в воздухе водяной пар достигнет насыщения.
  • f - Относительная влажность воздуха - влажноcть воздуха, измеренная на высоте 2 м над землей.
  • Te - Эффективная температура - температура, которую ощущает одетый по сезону человек в тени. Характеристика душности погоды. При расчете учитывается влияние влажности воздуха и скорости ветра на теплоощущения человека.
  • Tes - Эффективная температура на солнце - температура, которую ощущает человек, с поправкой на солнечный нагрев. Характеристика знойности погоды. Зависит от высоты солнца над горизонтом, облачности и скорости ветра. Ночью, в пасмурную погоду, а также при ветре 12 м/с и более поправка равна нулю.
  • P - Атмосферное давление - приведенное к уровню моря атмосферное давление.
  • Po - Атмосферное давление - измеренное на уровне метеостанции атмосферное давление.
  • Tmin - Минимальная температура - минимум температуры воздуха на высоте 2 м над землей.
  • Tmax - Максимальная температура - максимум температуры воздуха на высоте 2 м над землей.
  • R - Количество осадков - Количество выпавших осадков за период времени, мм. При наведении курсора мыши на число - период времени, за который выпало указанное количество осадков.